Pardubice, Czech Republic

6:42 PM CEST on April 29, 2017 (GMT +0200)
Pardubice

Weather History for LKPD - September, 2013

Change the Weather History Date:

Wednesday, September 11, 2013

  Actual Average Record
Temperature  
Mean Temperature 56 °F -  
Max Temperature 60 °F - - ()
Min Temperature 51 °F - - ()
Degree Days  
Heating Degree Days 10    
Growing Degree Days 6 (Base 50)    
Moisture  
Dew Point 48 °F    
Average Humidity 75    
Maximum Humidity 94    
Minimum Humidity 55    
Precipitation  
Precipitation 0.00 in - - ()
Sea Level Pressure  
Sea Level Pressure 29.97 in    
Wind  
Wind Speed 4 mph ()    
Max Wind Speed 8 mph    
Max Gust Speed -    
Visibility 6.2 miles    
Events      
T = Trace of Precipitation, MM = Missing Value Source: Averaged Metar Reports

Daily Weather History Graph

Daily Weather History Graph

Search for Another Location

Airport or City:

Trip Planner

Search our weather history database for the weather conditions in past years. The results will help you decide how hot, cold, wet, or windy it might be!

Date:

Astronomy

Sep. 11, 2013 Rise Set
Actual Time 6:26 AM CEST 7:19 PM CEST
Civil Twilight 5:54 AM CEST 7:52 PM CEST
Nautical Twilight 5:14 AM CEST 8:31 PM CEST
Astronomical Twilight 4:32 AM CEST 9:12 PM CEST
Moon 1:14 PM CEST (9/11) 10:21 PM CEST (9/11)
Length of Visible Light 13h 57m
Length of Day
12h 52m
Waxing Crescent, 36% of the Moon is Illuminated
Sep 11
Waxing Crescent
Sep 12
First Quarter
Sep 19
Full
Sep 27
Last Quarter
Oct 5
New

Hourly Weather History & Observations

Time (CEST) Temp. Dew Point Humidity Pressure Visibility Wind Dir Wind Speed Gust Speed Precip Events Conditions
12:00 AM 55.4 °F 53.6 °F 94% 29.98 in 6.2 mi WSW 5.8 mph - N/A   Overcast
1:00 AM 55.4 °F 51.8 °F 88% 29.98 in 6.2 mi West 6.9 mph - N/A   Mostly Cloudy
2:00 AM 53.6 °F 50.0 °F 88% 30.01 in - West 8.1 mph - N/A   Clear
3:00 AM 51.8 °F 50.0 °F 94% 30.01 in - WSW 5.8 mph - N/A   Clear
4:00 AM 51.8 °F 48.2 °F 88% 30.01 in - WSW 4.6 mph - N/A   Clear
5:00 AM 51.8 °F 48.2 °F 88% 29.98 in - WSW 4.6 mph - N/A   Clear
6:00 AM 51.8 °F 48.2 °F 88% 29.98 in - Calm Calm - N/A   Clear
7:00 AM 51.8 °F 48.2 °F 88% 29.98 in - Variable 2.3 mph - N/A   Clear
8:00 AM 51.8 °F 48.2 °F 88% 29.98 in - WSW 3.5 mph - N/A   Clear
9:00 AM 53.6 °F 48.2 °F 82% 29.98 in - SW 3.5 mph - N/A   Clear
10:00 AM 57.2 °F 46.4 °F 67% 29.98 in - West 6.9 mph - N/A   Clear
11:00 AM 57.2 °F 46.4 °F 67% 29.98 in - West 4.6 mph - N/A   Clear
12:00 PM 57.2 °F 46.4 °F 67% 29.98 in 6.2 mi WSW 6.9 mph - N/A   Mostly Cloudy
1:00 PM 57.2 °F 46.4 °F 67% 29.98 in 6.2 mi WSW 6.9 mph - N/A   Mostly Cloudy
2:00 PM 60.8 °F 46.4 °F 59% 29.98 in 6.2 mi WSW 6.9 mph - N/A   Scattered Clouds
3:00 PM 60.8 °F 44.6 °F 55% 29.95 in 6.2 mi WNW 5.8 mph - N/A   Mostly Cloudy
4:00 PM 60.8 °F 44.6 °F 55% 29.95 in 6.2 mi Variable 1.2 mph - N/A   Mostly Cloudy
5:00 PM 60.8 °F 44.6 °F 55% 29.95 in - WSW 6.9 mph - N/A   Clear
6:00 PM 60.8 °F 44.6 °F 55% 29.95 in 6.2 mi West 4.6 mph - N/A   Mostly Cloudy
7:00 PM 59.0 °F 46.4 °F 63% 29.95 in 6.2 mi Variable 2.3 mph - N/A   Mostly Cloudy
8:00 PM 57.2 °F 50.0 °F 77% 29.95 in - Calm Calm - N/A   Clear
9:00 PM 57.2 °F 51.8 °F 82% 29.95 in - Calm Calm - N/A   Clear
10:00 PM 55.4 °F 50.0 °F 82% 29.95 in - South 3.5 mph - N/A   Clear
11:00 PM 57.2 °F 48.2 °F 72% 29.95 in - Calm Calm - N/A   Clear